Tracking 35237 objects as of 5-Sep-2026
HD Live streaming from Space Station
objects crossing your sky now

COSMOS 2421 DEB


COSMOS 2421 DEB is no longer on orbit


NORAD ID: 33305
Int'l Code: 2006-026TV
Launch date: June 25, 2006
Source: Commonwealth of Independent States (former USSR) (CIS)
Launch site: TYURATAM MISSILE AND SPACE COMPLEX (TTMTR)
Decay date: 2008-09-22

Note: This is SATELLITE DEBRIS
Your satellite tracking list
Your tracking list is empty




NASA's NSSDC Master Catalog

Two Line Element Set (TLE):
1 33305U 06026TV  08266.08226858  .05579053  98977-1  98665-2 0  9990
2 33305 064.9866 113.2720 0017740 254.7803 105.3617 16.08335789  7009
Source of the keplerian elements: AFSPC